Location: Newark
(34.9500°N, 139.9667°E)
Time: 14:25:33
(UTC+00:00)

Vanguard 2 Rocket - Pass Details

Date: 14 December 2019
Orbit: 554 x 3326 km, 32.9° (Epoch: 18 January)

Event Time Altitude Azimuth Distance (km) Brightness Sun altitude
Rises 05:28:56 0° 222° (SW) 7,292 13.2 18.7°
Reaches altitude 10° 05:34:16 10° 216° (SW) 6,268 13.5 17.9°
Maximum altitude 05:52:15 45° 152° (SSE) 3,494 10.2 15.3°
Drops below altitude 10° 06:04:51 10° 86° (E) 4,523 10.0 13.4°
Sets 06:07:58 0° 79° (E) 5,193 10.2 12.9°
